2022-098K (53453 NORAD) Tracking and Keplerian Element Data

This shows tracking and keplerian element data for the satellite.

Feedback or suggestion? Click here.




ElementValue
Catalog53453
Name2022-098K
Epoch Orbit1551
Epoch Day325.11603306
Epoch Year2022
RAAN59.7304
Inclination97.5329
Eccentricity0.0005637
Argument of Perigee300.8816
Mean Anonmoly177.5528
Mean Motion15.09744196
Decay Rate3.974E-05
L11 53453U 22098K 22325.11603306 .00003974 00000+0 25019-3 0 9997
L22 53453 97.5329 59.7304 0005637 300.8816 177.5528 15.09744196 15515



Live tracking and technical data element details for 2022-098K (NORAD 53453). 2022-098K can be tracked NOW for your location showing map with azimuth and elevation plus other details from your city location.







IsCatalogInMostPopularTable: catalog: 53453, numindb: 6
Update: records affected: 1



GetName: 53453 2022-098K

Hit Count: updated at: Thu, 08 Dec 2022 19:48:15 GMT